Terminal Aerodrome Forecast
Issued by NWS

Home | Current Version | Previous Version | Text Only | Print | Product List | Glossary On
Versions: 1 2 3 4 5 6 7 8 9 10 11 12 13 14 15 16 17 18 19 20 21 22 23 24 25 26 27 28 29 30 31 32 33 34 35 36
000
FTUS45 KGJT 230520
TAFEGE
TAF
KEGE 230520Z 2306/2406 11005KT P6SM SCT060 BKN100
     FM231200 VRB03KT P6SM BKN100
     FM231900 25010G17KT P6SM SCT110
     FM240200 08004KT P6SM FEW110 SCT150
      AMD LTD TO CLD VIS AND WIND TIL 231300=

USA.gov is the U.S. government's official web portal to all federal, state and local government web resources and services.